If you wish to contribute or participate in the discussions about articles you are invited to join SKYbrary as a registered user

 Actions

William R. Fairchild International Airport

From SKYbrary Wiki

KCLM
Airport
ICAO: KCLM
Summary
Name William R. Fairchild International Airport
Region North America
Territory United States US.gif
Location Port Angeles, Washington
Serving
Coordinates 48° 6' 59.34" N, 123° 29' 35.67" W
Runways
Designator Length Width Surface ROPS
8/26 1935 m6,348.425 ft
46 m150.919 ft
ASP yes/yes
13/31 989 m3,244.751 ft
15 m49.213 ft
ASP yes/yes


METAR
Observation KCLM 220953Z AUTO 00000KT 10SM CLR M01/M02 A3014 RMK AO2 SLP207 T10111017
Station Port Angeles, William R. Fairchild International Airport
Date/Time 22 November 2019 09:53:00
Wind direction
Wind speed 00 kts
Lowest cloud amount n/a
Temperature
Dew point
Humidity 95%
QNH hPa
Weather condition n/a

WX
Tag(s) Fog

William R. Fairchild International Airport

ICAO: KCLM IATA: CLM

Description

William R. Fairchild International Airport is a public use airport located within the city limits of Port Angeles, in Clallam County, Washington.

Climatology

Temperate Marine climate/Oceanic climate (Köppen climate classification Cfb). Moderately cool summer and comparatively warm winter.

Maps

Terrain

Loading map...

Airport Layout

Loading map...


Accidents & Serious Incidents at or in vicinity of KCLM

None on SKYbrary